This is the latest recevied weather packets stored in our database for station/object W1BKW. If no packets are shown the sender has not sent any weather packets the latest 10 day(s).
| Time | Temp. | Humidity | Pressure | Rain* | Wind** | Luminosity | Snow |
|---|---|---|---|---|---|---|---|
| 1777563708 | 7.22° C | 99% | 1007 hPa | 0 mm | - | 121 W/m² | - |
| 1777562806 | 7.22° C | 99% | 1007.3 hPa | 0 mm | - | 112 W/m² | - |
| 1777561905 | 7.22° C | 99% | 1007.3 hPa | 1.78 mm | - | 67 W/m² | - |
| 1777561004 | 7.22° C | 99% | 1007.5 hPa | 0 mm | - | 64 W/m² | - |
| 1777560101 | 7.22° C | 99% | 1007.3 hPa | 0 mm | - | 53 W/m² | - |
| 1777559196 | 7.22° C | 99% | 1007.5 hPa | 1.27 mm | - | 47 W/m² | - |
| 1777558293 | 7.22° C | 99% | 1007.7 hPa | 0 mm | - | 54 W/m² | - |
| 1777557390 | 6.67° C | 99% | 1007.7 hPa | 0 mm | - | 51 W/m² | - |
| 1777556485 | 7.22° C | 99% | 1007.6 hPa | 0 mm | - | 88 W/m² | - |
| 1777555582 | 7.22° C | 99% | 1007.9 hPa | 0 mm | - | 69 W/m² | - |
| 1777554678 | 6.67° C | 99% | 1008.1 hPa | 0 mm | - | 69 W/m² | - |
| 1777553774 | 6.67° C | 99% | 1008.1 hPa | 0 mm | - | 81 W/m² | - |
| 1777552874 | 6.67° C | 99% | 1008.1 hPa | 0 mm | - | 71 W/m² | - |
| 1777551968 | 6.67° C | 99% | 1008.3 hPa | 0 mm | - | 59 W/m² | - |
| 1777551065 | 6.11° C | 99% | 1008.4 hPa | 0 mm | - | 43 W/m² | - |
| 1777550160 | 6.11° C | 99% | 1008.7 hPa | 0 mm | - | 27 W/m² | - |
| 1777549260 | 6.11° C | 99% | 1008.6 hPa | 0 mm | - | 35 W/m² | - |
| 1777548357 | 6.11° C | 99% | 1008.5 hPa | 1.27 mm | - | 33 W/m² | - |
| 1777547452 | 5.56° C | 99% | 1008.8 hPa | 1.78 mm | - | 23 W/m² | - |
| 1777546549 | 5.56° C | 99% | 1008.6 hPa | 0 mm | - | 24 W/m² | - |
| 1777545645 | 5.56° C | 99% | 1008.5 hPa | 3.56 mm | - | 5 W/m² | - |
| 1777544742 | 5.56° C | 99% | 1008.4 hPa | 4.83 mm | - | 2 W/m² | - |
| 1777543838 | 5.56° C | 99% | 1008 hPa | 4.83 mm | - | 0 W/m² | - |
| 1777542937 | 5.56° C | 99% | 1008.2 hPa | 3.56 mm | - | 0 W/m² | - |
| 1777542033 | 5.56° C | 99% | 1008.1 hPa | 3.05 mm | - | 0 W/m² | - |
* Rain latest hour (hover to see other rain measurements)
** Current wind speed in m/s (hover to see current wind gust speed)